[[{"header":{"parameterUnit":"m.s-1","parameterCategory":1,"la1":30.2991,"la2":30.254,"lo1":-89.0895,"lo2":-89.0444,"dy":0.0017,"dx":0.0017,"nx":28,"ny":28,"refTime":"2024-11-25T09:00:00:Z","depth":0,"parameterNumber":2,"parameterNumberName":"U-component_of_WINDS"},"data":[0,0,0,0,0,0,0,0,0,0,0,0,0,0,0,0,0,0,0,0,0,0,0,0,0,0,0,0,0,0,0,0,0,0,0,0,0,0,0,0,0,0,0,0,0,0,0,0,0,0,0,0,0,0,0,0,0,0,1.8567,1.8568,0,1.8627,1.8628,1.8628,1.8608,1.8606,1.8605,1.8604,1.8667,1.867,1.8672,0,0,0,0,0,0,0,0,0,0,0,0,0,1.8436,1.8439,1.8567,1.8568,1.8569,1.8627,1.8628,1.8629,1.8608,1.8606,1.8605,1.8603,1.8666,1.8669,1.8673,0,0,0,0,0,0,0,0,0,0,0,0,0,1.8494,1.844,1.8567,1.8565,1.8566,1.8627,1.8628,1.8629,1.8608,1.8606,1.8604,1.8602,1.8665,1.8669,1.8673,1.874,0,0,1.8687,1.8688,0,0,0,0,0,0,0,0,1.8491,1.8499,1.8565,1.8565,1.8566,1.8608,1.8605,1.8666,1.8609,1.8592,1.8604,1.8601,1.8649,1.8654,1.867,1.8743,1.8746,1.8687,1.869,1.8692,1.8693,0,0,0,0,0,0,0,1.8487,1.8497,1.8591,1.8566,1.8567,1.8562,1.8568,1.8616,1.8631,1.8593,1.8592,1.8599,1.8649,1.8666,1.8671,1.8747,1.8687,1.8691,1.8693,1.8695,1.8878,1.888,0,0,0,0,0,0,1.8483,1.8493,1.8589,1.8593,1.8523,1.8566,1.8573,1.8596,1.863,1.8634,1.8601,1.8598,1.8659,1.8666,1.8674,1.8754,1.8691,1.8696,1.8698,1.8876,1.8879,1.8881,0,0,0,0,0,0,1.848,1.8491,1.8587,1.8543,1.8554,1.857,1.8597,1.8599,1.8616,1.8636,1.8639,1.8616,1.8658,1.8667,1.8724,1.8756,1.8698,1.8702,1.8873,1.8877,1.888,1.8916,0,0,0,0,0,0,1.8476,1.849,1.8516,1.8543,1.8557,1.8635,1.8599,1.8601,1.8623,1.862,1.865,1.8654,1.8657,1.8717,1.8728,1.8761,1.8705,1.887,1.8875,1.8879,1.8912,1.8921,1.8928,0,0,0,0,0,1.8472,1.8524,1.8517,1.8529,1.8589,1.8637,1.8645,1.8647,1.8626,1.8651,1.8665,1.8653,1.8751,1.8723,1.8735,1.877,1.8868,1.8874,1.8878,1.8909,1.8919,1.8927,0,0,0,0,0,0,1.85,1.8527,1.852,1.8583,1.8608,1.8634,1.8666,1.8658,1.869,1.8686,1.8688,1.8695,1.8753,1.8767,1.8736,1.8837,1.8806,1.8814,1.8826,1.8835,1.8843,1.8838,1.8709,0,0,0,0,0,1.8514,1.855,1.8572,1.8626,1.8638,1.865,1.8671,1.8671,1.8697,1.8708,1.8725,1.8752,1.8788,1.8812,1.8847,1.8914,1.8921,1.8944,1.8952,1.8958,1.8965,1.9001,1.9012,1.8897,1.8897,1.8897,0,0,1.8542,1.8561,1.8585,1.8632,1.8651,1.869,1.8659,1.8701,1.873,1.8715,1.8769,1.8782,1.8812,1.8874,1.8902,1.8887,1.8998,1.8964,1.8969,1.8972,1.9008,1.9018,1.9028,1.8901,1.89,1.89,0,0,1.8613,1.8632,1.8678,1.8698,1.8727,1.8735,1.8746,1.8773,1.8781,1.8836,1.8825,1.8859,1.8923,1.8944,1.8963,1.9043,1.9034,1.9055,1.9095,1.913,1.9139,1.9147,1.9176,1.9186,1.9061,1.9061,1.9061,0,1.8645,1.8702,1.8703,1.8746,1.8767,1.8755,1.8802,1.8821,1.8861,1.8876,1.8859,1.8938,1.8957,1.9024,1.9044,1.9059,1.9073,1.9051,1.9138,1.9146,1.9153,1.9181,1.9192,1.9064,1.9063,1.9063,1.9063,0,1.874,1.8779,1.8813,1.8851,1.8877,1.8922,1.893,1.8955,1.8953,1.8963,1.9018,1.9041,1.908,1.9096,1.9094,1.9163,1.9153,1.9137,1.9106,1.9167,1.9193,1.9203,1.9067,1.9066,1.9065,1.9065,0,0,1.883,1.8869,1.8881,1.8898,1.893,1.8961,1.9006,1.9043,1.9065,1.9093,1.9131,1.9185,1.917,1.9192,1.9193,1.9224,1.9286,1.9205,1.9205,1.9219,1.9364,1.9376,1.9388,1.928,1.9282,1.9284,1.9361,0,1.8904,1.8982,1.8984,1.9056,1.9093,1.9081,1.912,1.9144,1.9155,1.9188,1.9199,1.9237,1.9215,1.9228,1.9259,1.9272,1.9316,1.9267,1.9316,1.9318,1.9309,1.9401,1.9414,1.9486,1.9371,1.9373,1.9374,0,1.9001,1.9031,1.9106,1.9133,1.9149,1.9183,1.9219,1.925,1.9278,1.9283,1.9307,1.9303,1.935,1.9317,1.9381,1.9348,1.9369,1.9378,1.9381,1.9386,1.935,1.9409,1.9509,1.952,1.939,1.9389,1.9388,0,1.906,1.912,1.9172,1.9187,1.922,1.9245,1.9259,1.9284,1.9307,1.9338,1.9353,1.9389,1.9409,1.9437,1.9444,1.942,1.9508,1.9476,1.9514,1.9514,1.9533,1.9532,1.9638,1.9546,1.9546,1.9546,1.9545,0,1.9142,1.9189,1.9199,1.9232,1.9283,1.9286,1.9337,1.935,1.9373,1.9408,1.9401,1.9434,1.944,1.9475,1.948,1.9532,1.9541,1.9547,1.9548,1.9548,1.9548,1.9562,1.9557,1.9549,1.9548,1.9547,1.9547,0,1.9217,1.9226,1.9282,1.9308,1.9316,1.9353,1.9375,1.9407,1.9416,1.9461,1.9471,1.9486,1.9527,1.9536,1.9584,1.9588,1.965,1.9646,1.9641,1.964,1.9678,1.9674,1.9797,1.9814,1.971,1.9711,1.9712,0,1.9269,1.9304,1.9334,1.9357,1.9372,1.9409,1.9432,1.9437,1.9461,1.9495,1.9522,1.9562,1.9594,1.9659,1.9675,1.9712,1.9709,1.9749,1.9714,1.9713,1.971,1.9708,1.9712,1.9756,1.9757,1.9758,1.9759,0,1.936,1.9363,1.9396,1.9432,1.9459,1.9487,1.9514,1.9533,1.9541,1.9569,1.9611,1.9635,1.9685,1.9724,1.9761,1.9777,1.977,1.977,1.9781,1.9781,1.9777,1.978,1.9659,1.9767,1.9766,1.9766,1.9765,1.9765,1.9425,1.9456,1.9482,1.9519,1.954,1.9565,1.9596,1.9609,1.9644,1.9684,1.9684,1.9729,1.9756,1.9805,1.9823,1.9859,1.9846,1.9862,1.9866,1.987,1.9873,1.9771,1.9866,1.9866,1.9865,1.9865,1.9865,0,1.9516,1.9532,1.9567,1.9604,1.9634,1.9624,1.9653,1.9679,1.9719,1.9744,1.9776,1.9824,1.9862,1.9881,1.9919,1.9944,1.9942,1.9954,1.9952,1.9956,1.9882,1.9869,1.9955,1.9955,1.9955,1.9955,1.9955,1.9955,1.9567,1.9619,1.9625,1.9687,1.9703,1.9747,1.9765,1.9788,1.9809,1.9862,1.9894,1.9906,1.9929,1.9968,2.0004,2.0008,2.0023,2.0037,2.004,1.997,1.9961,1.9953,1.994,2.004,2.004,2.0111,2.0112,2.0112]},{"header":{"parameterUnit":"m.s-1","parameterCategory":1,"la1":30.2991,"la2":30.254,"lo1":-89.0895,"lo2":-89.0444,"dy":0.0017,"dx":0.0017,"nx":28,"ny":28,"refTime":"2024-11-25T09:00:00:Z","depth":0,"parameterNumber":3,"parameterNumberName":"V-component_of_WINDS"},"data":[0,0,0,0,0,0,0,0,0,0,0,0,0,0,0,0,0,0,0,0,0,0,0,0,0,0,0,0,0,0,0,0,0,0,0,0,0,0,0,0,0,0,0,0,0,0,0,0,0,0,0,0,0,0,0,0,0,0,2.593,2.5931,0,2.6048,2.6049,2.605,2.6059,2.6058,2.6056,2.6055,2.6175,2.6179,2.6184,0,0,0,0,0,0,0,0,0,0,0,0,0,2.5713,2.5717,2.593,2.5932,2.5933,2.6048,2.6049,2.6051,2.6059,2.6058,2.6056,2.6055,2.6174,2.6179,2.6184,0,0,0,0,0,0,0,0,0,0,0,0,0,2.5816,2.5718,2.593,2.5951,2.5954,2.6047,2.6049,2.6051,2.606,2.6058,2.6056,2.6054,2.6172,2.6178,2.6185,2.6265,0,0,2.6205,2.6208,0,0,0,0,0,0,0,0,2.581,2.5824,2.5946,2.595,2.5953,2.6037,2.6017,2.6123,2.606,2.6019,2.6055,2.6053,2.6131,2.614,2.6167,2.627,2.6276,2.6206,2.621,2.6213,2.6214,0,0,0,0,0,0,0,2.5803,2.5819,2.5977,2.5948,2.5952,2.5955,2.5967,2.6037,2.6085,2.6023,2.6024,2.6038,2.6132,2.616,2.617,2.6277,2.6205,2.6211,2.6215,2.6218,2.6453,2.6456,0,0,0,0,0,0,2.5792,2.5813,2.5973,2.598,2.5876,2.596,2.5974,2.6012,2.6084,2.6093,2.6039,2.6038,2.615,2.6162,2.6174,2.6273,2.6212,2.6219,2.6222,2.6451,2.6454,2.6456,0,0,0,0,0,0,2.5787,2.5806,2.5968,2.5897,2.5918,2.5966,2.6008,2.6015,2.6044,2.6096,2.6105,2.6059,2.6149,2.6165,2.6242,2.6278,2.6222,2.6228,2.6448,2.6452,2.6455,2.6472,0,0,0,0,0,0,2.5781,2.5805,2.5835,2.5898,2.5922,2.6035,2.601,2.6019,2.6055,2.6054,2.6117,2.6126,2.6149,2.6233,2.6249,2.6286,2.6233,2.6446,2.645,2.6454,2.6469,2.6476,2.6482,0,0,0,0,0,2.5773,2.5835,2.5837,2.5856,2.5961,2.6037,2.605,2.6076,2.6058,2.6089,2.6123,2.6124,2.6271,2.624,2.6259,2.6298,2.6443,2.6449,2.6454,2.6466,2.6474,2.6481,0,0,0,0,0,0,2.5775,2.5844,2.5846,2.593,2.5978,2.6038,2.6079,2.6084,2.6137,2.6134,2.6163,2.6177,2.6254,2.6284,2.6249,2.638,2.6355,2.6364,2.6358,2.6366,2.6373,2.6365,2.6238,0,0,0,0,0,2.5785,2.5841,2.5898,2.5966,2.599,2.603,2.6064,2.6079,2.613,2.615,2.6189,2.6238,2.6295,2.6332,2.6388,2.6472,2.6487,2.6509,2.6515,2.652,2.6528,2.6576,2.6587,2.6473,2.6473,2.6473,0,0,2.5807,2.5851,2.5885,2.5968,2.6006,2.6064,2.6047,2.6108,2.6151,2.6159,2.6235,2.6266,2.6322,2.6404,2.6442,2.6431,2.6562,2.6527,2.653,2.6536,2.6583,2.6593,2.6603,2.6477,2.6476,2.6476,0,0,2.5876,2.5915,2.5977,2.6016,2.6075,2.6101,2.6116,2.6176,2.6197,2.6274,2.6281,2.6332,2.643,2.647,2.6503,2.6588,2.6591,2.6605,2.664,2.6686,2.6695,2.6703,2.6735,2.6745,2.6612,2.6613,2.6613,0,2.5896,2.5983,2.6008,2.6069,2.6106,2.6116,2.6179,2.6216,2.6289,2.6315,2.6301,2.6425,2.6463,2.6555,2.6576,2.6602,2.662,2.6599,2.6692,2.67,2.6708,2.6738,2.675,2.6614,2.6614,2.6614,2.6613,0,2.6004,2.6064,2.6107,2.6179,2.622,2.6282,2.6317,2.6356,2.6367,2.6395,2.6474,2.652,2.6586,2.6608,2.662,2.6702,2.6694,2.6686,2.6662,2.672,2.6749,2.6761,2.6616,2.6615,2.6615,2.6615,0,0,2.6078,2.6163,2.6179,2.6212,2.6278,2.6325,2.6387,2.6452,2.6485,2.6535,2.6589,2.6671,2.6665,2.6702,2.6718,2.6759,2.6825,2.6746,2.6748,2.676,2.692,2.6926,2.6939,2.6826,2.6829,2.6831,2.6915,0,2.6156,2.6268,2.6292,2.6389,2.6445,2.6455,2.651,2.6556,2.6584,2.6636,2.6666,2.6725,2.671,2.6734,2.6774,2.6808,2.6857,2.6802,2.6877,2.688,2.6864,2.6954,2.6961,2.7039,2.6927,2.6929,2.693,0,2.6261,2.6315,2.6417,2.6476,2.6501,2.6549,2.6611,2.666,2.6713,2.673,2.6772,2.6785,2.685,2.6822,2.6913,2.6875,2.6907,2.6928,2.6932,2.6941,2.6909,2.6967,2.7064,2.7076,2.6948,2.6946,2.6945,0,2.6306,2.6404,2.6478,2.6506,2.6576,2.6611,2.6642,2.6692,2.673,2.6783,2.6808,2.6868,2.6902,2.6948,2.6976,2.6953,2.7065,2.7039,2.7082,2.7082,2.7106,2.7105,2.7212,2.7125,2.7125,2.7124,2.7124,0,2.6391,2.6453,2.65,2.6545,2.6616,2.6643,2.6712,2.6743,2.6789,2.6841,2.6852,2.6901,2.6935,2.6988,2.701,2.7083,2.7097,2.7113,2.7119,2.7113,2.7111,2.7136,2.7131,2.7127,2.7127,2.7126,2.7126,0,2.6454,2.6487,2.6569,2.6629,2.6646,2.6695,2.6747,2.6792,2.6819,2.6885,2.6902,2.6946,2.7009,2.7042,2.712,2.7135,2.7218,2.7219,2.72,2.7203,2.7244,2.724,2.7372,2.7391,2.729,2.7291,2.7291,0,2.6506,2.6554,2.662,2.6656,2.6688,2.6746,2.6784,2.6813,2.6853,2.6917,2.6954,2.7018,2.7071,2.7172,2.7211,2.7271,2.7275,2.7317,2.7284,2.7278,2.7277,2.7275,2.728,2.7323,2.7324,2.7325,2.7325,0,2.6596,2.661,2.6665,2.6727,2.6772,2.6822,2.6871,2.6899,2.6936,2.698,2.7046,2.7087,2.7168,2.7232,2.7295,2.7327,2.7333,2.7335,2.7349,2.7344,2.7332,2.734,2.7218,2.7332,2.7332,2.7331,2.7331,2.7331,2.6656,2.67,2.6753,2.6815,2.6855,2.69,2.6946,2.698,2.7035,2.7103,2.7117,2.7186,2.7238,2.7324,2.7358,2.7413,2.7404,2.7423,2.7428,2.7433,2.7435,2.7322,2.7424,2.7424,2.7424,2.7424,2.7424,0,2.6747,2.6782,2.6838,2.6907,2.6955,2.6957,2.7011,2.7051,2.7113,2.7161,2.7213,2.7288,2.735,2.7394,2.7457,2.7493,2.7497,2.7508,2.7507,2.7514,2.7439,2.7422,2.7504,2.7504,2.7504,2.7504,2.7504,2.7504,2.68,2.6875,2.6896,2.6991,2.7026,2.7095,2.7126,2.7168,2.7207,2.7291,2.7343,2.7371,2.7417,2.7484,2.7541,2.7552,2.7576,2.7587,2.7599,2.7528,2.7519,2.7511,2.7495,2.7592,2.7592,2.767,2.767,2.7671]}]]